This demonstration page uses our WeatherBlox Daily Observations layout. Learn more.

Left ArrowRight Arrow

Hourly Observations for May 21, 2018

Temp ( °F °C ) Dew Point ( °F °C ) Humidity (%) Winds ( mph kmh ) Pressure ( in mb ) Visibility ( mi km ) Precip ( " mm )
12:51 am 00:51 Clear 67 19.4 14 -10 13 13 ESE 6 9 29.69 1006 10 16 0.00 0.00
1:51 am 01:51 Clear 64 17.8 13 -10.6 13 13 E 7 11 29.70 1006 10 16 0.00 0.00
2:51 am 02:51 Clear 65 18.3 14 -10 14 14 NE 9 15 29.69 1006 10 16 0.00 0.00
3:51 am 03:51 Clear 66 18.9 14 -10 13 13 SE 7 11 29.71 1006 10 16 0.00 0.00
4:51 am 04:51 Clear 61 16.1 14 -10 16 16 E 7 11 29.71 1006 10 16 0.00 0.00
5:51 am 05:51 Sunny 61 16.1 14 -10 16 16 E 9 15 29.73 1007 10 16 0.00 0.00
6:51 am 06:51 Sunny 70 21.1 15 -9.4 12 12 SE 6 9 29.73 1007 10 16 0.00 0.00
7:51 am 07:51 Sunny 78 25.6 10 -12.2 7 7 E 12 19 29.73 1007 10 16 0.00 0.00
8:51 am 08:51 Sunny 82 27.8 13 -10.6 7 7 E 14 22 29.72 1006 10 16 0.00 0.00
9:51 am 09:51 Sunny 84 28.9 8 -13.3 5 5 SSE 9 15 29.72 1006 10 16 0.00 0.00
10:51 am 10:51 Sunny 88 31.1 9 -12.8 5 5 SE 16 26 29.70 1006 10 16 0.00 0.00
11:51 am 11:51 Sunny 91 32.8 6 -14.4 4 4 S 16 26 29.67 1005 10 16 0.00 0.00
12:51 pm 12:51 Sunny 91 32.8 6 -14.4 4 4 SE 9 15 29.64 1004 10 16 0.00 0.00
1:51 pm 13:51 Sunny 95 35 0 -17.8 3 3 S 23 37 29.60 1003 10 16 0.00 0.00
2:51 pm 14:51 Sunny 95 35 5 -15 3 3 SW 17 28 29.58 1002 10 16 0.00 0.00
3:51 pm 15:51 Sunny 95 35 6 -14.4 3 3 SW 14 22 29.55 1001 10 16 0.00 0.00
4:51 pm 16:51 Sunny 94 34.4 -1 -18.3 3 3 SW 14 22 29.55 1001 10 16 0.00 0.00
5:51 pm 17:51 Sunny 92 33.3 -1 -18.3 3 3 SSW 14 22 29.55 1001 10 16 0.00 0.00
6:51 pm 18:51 Sunny 90 32.2 2 -16.7 3 3 SSW 13 20 29.55 1001 10 16 0.00 0.00
7:51 pm 19:51 Clear 83 28.3 3 -16.1 4 4 WNW 9 15 29.57 1002 10 16 0.00 0.00
8:51 pm 20:51 Clear 78 25.6 9 -12.8 7 7 W 6 9 29.60 1003 10 16 0.00 0.00
9:51 pm 21:51 Clear 76 24.4 15 -9.4 10 10 NNW 8 13 29.63 1003 10 16 0.00 0.00
10:51 pm 22:51 Clear 76 24.4 18 -7.8 11 11 NW 8 13 29.64 1004 10 16 0.00 0.00

Powered by AerisWeather